Bowling Green, KY

5:49 AM CDT on September 21, 2017 (GMT -0500)
Bowling Green-Warren County Regional

Weather History for KBWG - March, 2013

Change the Weather History Date:

Monday, March 25, 2013

  Actual Average Record
Temperature  
Mean Temperature 37 °F 51 °F  
Max Temperature 40 °F 63 °F 90 °F (1907)
Min Temperature 33 °F 39 °F 20 °F (1960)
Degree Days  
Heating Degree Days 28 14  
Month to date heating degree days 562 442  
Since 1 July heating degree days 3457 3640  
Cooling Degree Days 0 0  
Month to date cooling degree days 0 0  
Year to date cooling degree days 0 0  
Moisture  
Dew Point 30 °F    
Average Humidity 77    
Maximum Humidity 89    
Minimum Humidity 64    
Precipitation  
Precipitation 0.03 in 0.15 in 1.65 in (1965)
Month to date precipitation 4.60 3.50  
Year to date precipitation 12.29 11.07  
Snow  
Snow 0.50 in 0.00 in 0.50 in (2013)
Month to date snowfall 2.0 0.9  
Since 1 July snowfall 3.3 8.7  
Snow Depth T in    
Sea Level Pressure  
Sea Level Pressure 29.89 in    
Wind  
Wind Speed 14 mph (West)    
Max Wind Speed 26 mph    
Max Gust Speed 36 mph    
Visibility 3 miles    
Events Fog , Snow    
T = Trace of Precipitation, MM = Missing Value Source: NWS Daily Summary

Daily Weather History Graph

Daily Weather History Graph

Search for Another Location

Airport or City:

Trip Planner

Search our weather history database for the weather conditions in past years. The results will help you decide how hot, cold, wet, or windy it might be!

Date:

Astronomy

Mar. 25, 2013 Rise Set
Actual Time 6:41 AM CDT 7:02 PM CDT
Civil Twilight 6:15 AM CDT 7:28 PM CDT
Nautical Twilight 5:45 AM CDT 7:58 PM CDT
Astronomical Twilight 5:14 AM CDT 8:29 PM CDT
Moon 5:34 PM CDT (3/25) 5:22 AM CDT (3/25)
Length of Visible Light 13h 12m
Length of Day
12h 20m
Waxing Gibbous, 96% of the Moon is Illuminated
Mar 25
Waxing Gibbous
Mar 27
Full
Apr 2
Last Quarter
Apr 10
New
Apr 18
First Quarter

Hourly Weather History & Observations

Time (CDT) Temp. Windchill Dew Point Humidity Pressure Visibility Wind Dir Wind Speed Gust Speed Precip Events Conditions
12:53 AM 36.0 °F 24.4 °F 27.0 °F 70% 29.65 in 7.0 mi West 23.0 mph 31.1 mph 0.00 in Snow Light Snow
1:53 AM 35.1 °F 24.8 °F 28.9 °F 78% 29.68 in 6.0 mi West 17.3 mph 23.0 mph 0.00 in   Haze
2:53 AM 35.1 °F 24.5 °F 28.0 °F 76% 29.69 in 10.0 mi West 18.4 mph 24.2 mph N/A   Overcast
3:53 AM 35.1 °F 25.9 °F 28.0 °F 76% 29.70 in 5.0 mi West 13.8 mph 24.2 mph 0.00 in Snow Light Snow
4:53 AM 35.1 °F 25.5 °F 28.0 °F 76% 29.71 in 9.0 mi West 15.0 mph 20.7 mph 0.00 in   Overcast
5:53 AM 34.0 °F 25.0 °F 28.9 °F 82% 29.73 in 5.0 mi West 12.7 mph 20.7 mph 0.00 in Snow Light Snow
6:18 AM 33.8 °F 23.9 °F 28.4 °F 81% 29.73 in 3.0 mi West 15.0 mph 20.7 mph 0.00 in Snow Light Snow
6:49 AM 33.8 °F 24.8 °F 28.4 °F 81% 29.75 in 1.8 mi West 12.7 mph - 0.00 in Snow Light Snow
6:53 AM 33.1 °F 24.4 °F 28.9 °F 85% 29.76 in 1.5 mi West 11.5 mph 18.4 mph 0.00 in Snow Light Snow
7:04 AM 33.8 °F 24.8 °F 30.2 °F 87% 29.75 in 1.2 mi West 12.7 mph 19.6 mph 0.00 in Snow Light Snow
7:17 AM 33.8 °F 24.3 °F 30.2 °F 87% 29.76 in 1.2 mi West 13.8 mph - 0.00 in Snow Light Snow
7:21 AM 33.8 °F 24.3 °F 30.2 °F 87% 29.76 in 1.5 mi West 13.8 mph - 0.00 in Snow Light Snow
7:35 AM 33.8 °F 24.3 °F 30.2 °F 87% 29.76 in 2.5 mi West 13.8 mph 20.7 mph 0.00 in Snow Light Snow
7:48 AM 33.8 °F 24.8 °F 28.4 °F 81% 29.77 in 2.0 mi West 12.7 mph 19.6 mph 0.00 in Snow Light Snow
7:53 AM 33.1 °F 24.4 °F 30.0 °F 89% 29.78 in 2.0 mi West 11.5 mph - 0.00 in Snow Light Snow
7:58 AM 33.8 °F 24.3 °F 30.2 °F 87% 29.78 in 1.8 mi West 13.8 mph - 0.00 in Snow Light Snow
8:03 AM 33.8 °F 24.3 °F 30.2 °F 87% 29.78 in 1.2 mi West 13.8 mph - 0.00 in Snow Light Snow
8:05 AM 33.8 °F 24.8 °F 30.2 °F 87% 29.78 in 1.0 mi West 12.7 mph - 0.00 in Snow Light Snow
8:12 AM 33.8 °F 24.8 °F 30.2 °F 87% 29.78 in 1.0 mi West 12.7 mph - 0.00 in Snow Light Snow
8:26 AM 33.8 °F 25.3 °F 30.2 °F 87% 29.79 in 0.8 mi West 11.5 mph - 0.00 in Snow Light Snow
8:33 AM 33.8 °F 25.3 °F 30.2 °F 87% 29.79 in 0.8 mi West 11.5 mph - 0.00 in Snow Light Snow
8:45 AM 33.8 °F 24.8 °F 30.2 °F 87% 29.80 in 1.0 mi West 12.7 mph - 0.00 in Snow Light Snow
8:53 AM 33.1 °F 23.4 °F 30.0 °F 89% 29.82 in 0.8 mi West 13.8 mph 18.4 mph 0.00 in Snow Light Snow
9:05 AM 33.8 °F 24.8 °F 30.2 °F 87% 29.81 in 1.0 mi West 12.7 mph - 0.00 in Snow Light Snow
9:15 AM 33.8 °F 25.3 °F 30.2 °F 87% 29.82 in 0.5 mi West 11.5 mph 18.4 mph 0.00 in Fog , Snow Snow
9:24 AM 33.8 °F 25.3 °F 30.2 °F 87% 29.82 in 0.5 mi West 11.5 mph - 0.01 in Fog , Snow Snow
9:29 AM 33.8 °F 25.3 °F 30.2 °F 87% 29.82 in 0.8 mi West 11.5 mph - 0.01 in Snow Light Snow
9:35 AM 33.8 °F 24.8 °F 30.2 °F 87% 29.83 in 0.8 mi West 12.7 mph 18.4 mph 0.01 in Snow Light Snow
9:37 AM 33.8 °F 24.8 °F 30.2 °F 87% 29.83 in 0.5 mi West 12.7 mph 18.4 mph 0.01 in Fog , Snow Snow
9:53 AM 33.1 °F 23.4 °F 30.0 °F 89% 29.85 in 0.5 mi West 13.8 mph - 0.02 in Fog , Snow Snow
10:01 AM 33.8 °F 23.2 °F 30.2 °F 87% 29.84 in 0.5 mi West 17.3 mph - 0.00 in Fog , Snow Snow
10:28 AM 33.8 °F 23.9 °F 30.2 °F 87% 29.85 in 0.8 mi West 15.0 mph - 0.00 in Snow Light Snow
10:40 AM 35.6 °F 26.6 °F 30.2 °F 81% 29.85 in 1.2 mi West 13.8 mph 26.5 mph 0.01 in Snow Light Snow
10:44 AM 35.6 °F 24.5 °F 30.2 °F 81% 29.86 in 1.8 mi West 20.7 mph 26.5 mph 0.01 in Snow Light Snow
10:46 AM 35.6 °F 25.2 °F 30.2 °F 81% 29.86 in 2.0 mi West 18.4 mph 26.5 mph 0.01 in Snow Light Snow
10:53 AM 35.1 °F 24.1 °F 30.9 °F 85% 29.87 in 2.5 mi West 19.6 mph 26.5 mph 0.01 in Snow Light Snow
11:06 AM 35.6 °F 24.5 °F 30.2 °F 81% 29.86 in 3.0 mi West 20.7 mph 25.3 mph 0.00 in Snow Light Snow
11:26 AM 35.6 °F 25.5 °F 30.2 °F 81% 29.87 in 1.8 mi West 17.3 mph 26.5 mph 0.00 in Snow Light Snow
11:30 AM 35.6 °F 26.6 °F 30.2 °F 81% 29.88 in 1.2 mi West 13.8 mph 26.5 mph 0.00 in Snow Light Snow
11:37 AM 35.6 °F 24.8 °F 30.2 °F 81% 29.88 in 1.5 mi West 19.6 mph 28.8 mph 0.00 in Snow Light Snow
11:49 AM 35.6 °F 26.6 °F 32.0 °F 87% 29.88 in 1.2 mi West 13.8 mph 21.9 mph 0.00 in Snow Light Snow
11:53 AM 36.0 °F 26.7 °F 32.0 °F 86% 29.89 in 1.2 mi West 15.0 mph 19.6 mph 0.00 in Snow Light Snow
12:02 PM 37.4 °F 29.8 °F 32.0 °F 81% 29.88 in 2.0 mi West 11.5 mph 24.2 mph 0.00 in Snow Light Snow
12:11 PM 35.6 °F 25.2 °F 30.2 °F 81% 29.88 in 5.0 mi West 18.4 mph 27.6 mph 0.00 in Snow Light Snow
12:40 PM 35.6 °F 25.2 °F 30.2 °F 81% 29.89 in 2.5 mi West 18.4 mph 27.6 mph 0.00 in Snow Light Snow
12:53 PM 36.0 °F 26.3 °F 30.0 °F 79% 29.90 in 1.8 mi West 16.1 mph 26.5 mph 0.00 in Snow Light Snow
1:02 PM 37.4 °F 27.8 °F 32.0 °F 81% 29.89 in 2.5 mi West 17.3 mph 28.8 mph 0.00 in Snow Light Snow
1:09 PM 37.4 °F 26.6 °F 32.0 °F 81% 29.89 in 5.0 mi West 21.9 mph 31.1 mph 0.00 in Snow Light Snow
1:53 PM 39.0 °F 29.0 °F 30.0 °F 70% 29.92 in 9.0 mi West 20.7 mph 29.9 mph 0.00 in   Unknown
2:28 PM 39.2 °F 28.5 °F 28.4 °F 65% 29.91 in 9.0 mi West 24.2 mph 29.9 mph 0.00 in   Overcast
2:53 PM 39.0 °F 30.6 °F 28.0 °F 65% 29.92 in 9.0 mi West 15.0 mph 28.8 mph 0.00 in   Overcast
3:53 PM 37.9 °F 28.5 °F 28.0 °F 68% 29.95 in 10.0 mi West 17.3 mph 27.6 mph 0.00 in   Overcast
4:53 PM 37.9 °F 27.6 °F 26.1 °F 62% 29.97 in 10.0 mi West 20.7 mph 27.6 mph 0.00 in   Overcast
5:15 PM 35.6 °F 24.8 °F 28.4 °F 75% 29.98 in 1.8 mi West 19.6 mph 35.7 mph 0.00 in Snow Light Snow
5:23 PM 35.6 °F 27.5 °F 28.4 °F 75% 29.98 in 1.2 mi WNW 11.5 mph 25.3 mph 0.00 in Snow Light Snow
5:26 PM 35.6 °F 27.5 °F 28.4 °F 75% 29.98 in 2.0 mi WNW 11.5 mph 25.3 mph 0.00 in Snow Light Snow
5:29 PM 35.6 °F 28.6 °F 28.4 °F 75% 29.98 in 4.0 mi WNW 9.2 mph 19.6 mph 0.00 in Snow Light Snow
5:53 PM 36.0 °F 28.0 °F 28.9 °F 76% 30.01 in 10.0 mi West 11.5 mph 23.0 mph 0.00 in   Overcast
6:08 PM 35.6 °F 27.1 °F 28.4 °F 75% 30.00 in 3.0 mi WNW 12.7 mph 23.0 mph 0.00 in Snow Light Snow
6:15 PM 35.6 °F 28.0 °F 28.4 °F 75% 30.01 in 2.5 mi WNW 10.4 mph 23.0 mph 0.00 in Snow Light Snow
6:22 PM 35.6 °F 28.0 °F 28.4 °F 75% 30.01 in 3.0 mi WNW 10.4 mph - 0.00 in Snow Light Snow
6:30 PM 35.6 °F 27.1 °F 28.4 °F 75% 30.01 in 2.0 mi WNW 12.7 mph - 0.00 in Snow Light Snow
6:39 PM 35.6 °F 28.0 °F 28.4 °F 75% 30.02 in 3.0 mi WNW 10.4 mph 19.6 mph 0.00 in Snow Light Snow
6:53 PM 35.1 °F 27.9 °F 28.9 °F 78% 30.04 in 4.0 mi WNW 9.2 mph - 0.00 in Snow Light Snow
7:03 PM 33.8 °F 26.4 °F 30.2 °F 87% 30.03 in 1.8 mi WNW 9.2 mph 18.4 mph 0.00 in Snow Light Snow
7:11 PM 33.8 °F 25.3 °F 30.2 °F 87% 30.03 in 1.5 mi WNW 11.5 mph - 0.00 in Snow Light Snow
7:16 PM 33.8 °F 24.8 °F 30.2 °F 87% 30.03 in 3.0 mi WNW 12.7 mph - 0.00 in Snow Light Snow
7:38 PM 33.8 °F 25.3 °F 30.2 °F 87% 30.04 in 8.0 mi West 11.5 mph - 0.00 in Snow Light Snow
7:53 PM 34.0 °F 26.0 °F 30.0 °F 85% 30.06 in 10.0 mi WNW 10.4 mph - 0.00 in   Mostly Cloudy
8:53 PM 34.0 °F 26.0 °F 28.9 °F 82% 30.08 in 10.0 mi WNW 10.4 mph - N/A   Overcast
9:53 PM 35.1 °F 27.4 °F 28.9 °F 78% 30.10 in 10.0 mi NW 10.4 mph - N/A   Overcast
10:15 PM 35.6 °F 28.0 °F 28.4 °F 75% 30.09 in 10.0 mi NW 10.4 mph - N/A   Overcast
10:46 PM 33.8 °F 27.0 °F 28.4 °F 81% 30.10 in 2.5 mi WNW 8.1 mph - 0.00 in Snow Light Snow
10:53 PM 34.0 °F 26.6 °F 28.9 °F 82% 30.11 in 2.5 mi NW 9.2 mph - 0.00 in Snow Light Snow
11:14 PM 33.8 °F 27.7 °F 30.2 °F 87% 30.10 in 3.0 mi WNW 6.9 mph - 0.00 in Snow Light Snow
11:53 PM 34.0 °F 27.2 °F 28.9 °F 82% 30.12 in 7.0 mi WNW 8.1 mph - 0.00 in   Overcast